This demonstration page uses our WeatherBlox Daily Observations layout. Learn more.

Left ArrowRight Arrow

44.8408, -93.29828

Hourly Observations for March 11, 2016

Temp ( °F °C ) Dew Point ( °F °C ) Humidity (%) Winds ( mph kmh ) Pressure ( in mb ) Visibility ( mi km ) Precip ( " mm )
12:53 am 00:53 Clear 32 0 27 -2.8 82 82 SE 5 7 30.25 1024 10 16 0.00 0.00
1:53 am 01:53 Clear 31 -0.6 26 -3.3 82 82 Calm 30.28 1026 9 14 0.00 0.00
2:53 am 02:53 Clear 31 -0.6 26 -3.3 82 82 ESE 5 7 30.27 1025 10 16 0.00 0.00
3:53 am 03:53 Clear 30 -1.1 26 -3.3 85 85 Calm 30.27 1025 8 13 0.00 0.00
4:53 am 04:53 Clear 30 -1.1 26 -3.3 85 85 SE 7 11 30.29 1026 7 11 0.00 0.00
5:53 am 05:53 Clear 29 -1.7 26 -3.3 89 89 SE 7 11 30.27 1025 7 11 0.00 0.00
6:53 am 06:53 Mostly Sunny 31 -0.6 28 -2.2 89 89 SE 6 9 30.27 1025 7 11 0.00 0.00
7:53 am 07:53 Mostly Sunny 35 1.7 30 -1.1 82 82 SE 7 11 30.27 1025 7 11 0.00 0.00
8:53 am 08:53 Mostly Sunny 39 3.9 32 0 76 76 SSE 8 13 30.27 1025 8 13 0.00 0.00
9:53 am 09:53 Partly Cloudy 44 6.7 31 -0.6 60 60 SSE 10 17 30.26 1025 10 16 0.00 0.00
10:53 am 10:53 Partly Cloudy 49 9.4 31 -0.6 50 50 SSE 13 20 30.23 1024 10 16 0.00 0.00
11:53 am 11:53 Mostly Sunny 53 11.7 33 0.6 47 47 SSE 15 24 30.21 1023 10 16 0.00 0.00
12:53 pm 12:53 Mostly Sunny 58 14.4 36 2.2 44 44 SSE 17 28 30.17 1022 10 16 0.00 0.00
1:53 pm 13:53 Mostly Sunny 61 16.1 39 3.9 44 44 SSE 16 26 30.15 1021 10 16 0.00 0.00
2:53 pm 14:53 Mostly Sunny 63 17.2 41 5 45 45 S 14 22 30.11 1020 10 16 0.00 0.00
3:53 pm 15:53 Mostly Sunny 64 17.8 42 5.6 45 45 S 16 26 30.09 1019 10 16 0.00 0.00
4:53 pm 16:53 Mostly Sunny 65 18.3 43 6.1 45 45 S 15 24 30.08 1019 10 16 0.00 0.00
5:53 pm 17:53 Mostly Sunny 66 18.9 43 6.1 43 43 S 12 19 30.07 1018 10 16 0.00 0.00
6:53 pm 18:53 Mostly Clear 63 17.2 42 5.6 47 47 S 10 17 30.06 1018 10 16 0.00 0.00
7:53 pm 19:53 Mostly Clear 61 16.1 41 5 48 48 S 12 19 30.06 1018 10 16 0.00 0.00
8:53 pm 20:53 Clear 58 14.4 43 6.1 58 58 S 10 17 30.08 1019 10 16 0.00 0.00
9:53 pm 21:53 Clear 58 14.4 42 5.6 56 56 S 10 17 30.06 1018 10 16 0.00 0.00
10:53 pm 22:53 Mostly Clear 58 14.4 41 5 53 53 S 10 17 30.06 1018 10 16 0.00 0.00
11:53 pm 23:53 Clear 57 13.9 40 4.4 53 53 SSW 10 17 30.07 1018 10 16 0.00 0.00

Powered by AerisWeather